Regional Weather Roundup
Issued by NWS

Home | Current Version | Previous Version | Text Only | Print | Product List | Glossary Off
Versions: 1 2 3 4 5 6 7 8 9 10 11 12 13 14 15 16 17 18 19 20 21 22 23 24 25 26 27 28 29 30 31 32 33 34 35 36 37 38 39 40 41 42 43 44

000
ASUS43 KDMX 021007
RWRIA

WEATHER ROUNDUP FOR IOWA
NATIONAL WEATHER SERVICE DES MOINES IA
500 AM CDT THU OCT 02 2014

NOTE: "FAIR" INDICATES FEW OR NO CLOUDS BELOW 12,000 FEET WITH NO
SIGNIFICANT WEATHER AND/OR OBSTRUCTIONS TO VISIBILITY.

* - THESE STATIONS ARE NOT NWS STATIONS...THUS NOT UNDER NWS
QUALITY CONTROL.  THEY ALSO DO NOT REPORT WEATHER SUCH
AS PRECIPITATION OR FOG.

IAZ001>003-012>014-020>022-031>034-043>046-021100-
   NORTHWEST IOWA

CITY           SKY/WX    TMP DP  RH WIND       PRES   REMARKS
CARROLL *      FOG       61  61 100 CALM      29.79R VSB 0
CHEROKEE *     MOCLDY    57  57 100 N9        29.78F FOG
DENISON *      FOG       63  63 100 E5        29.76S VSB 1/4
LE MARS *      PTCLDY    57  54  88 N7        29.80F
ORANGE CITY *  PTCLDY    57  50  77 NE7       29.81R
SHELDON *      CLOUDY    57  52  82 NE9G16    29.81R
SIOUX CITY     CLOUDY    59  55  87 N8        29.79R
SPENCER        CLOUDY    58  57  97 N8        29.80S
STORM LAKE *   FOG       59  59 100 E6        29.79S VSB 0
$$

IAZ055>058-069>071-079>083-090>094-021100-
   SOUTHWEST IOWA

CITY           SKY/WX    TMP DP  RH WIND       PRES   REMARKS
ATLANTIC *     FOG       63  63 100 NE3       29.76F VSB 1/4
AUDUBON *      HAZE      61  55  82 CALM      29.79R VSB 0
CLARINDA *     CLOUDY    64  64 100 E5        29.76S FOG
COUNCIL BLFS * FOG       63  63 100 E5        29.75F VSB 0
CRESTON *      FOG       63  63 100 E6        29.77F VSB 0
HARLAN  *      FOG       63  63 100 CALM      29.81S VSB 0
LAMONI         CLOUDY    64  63  96 E3        29.77S FOG
RED OAK *      FOG       64  64 100 NE6       29.76S VSB 1/2
SHENANDOAH *   CLOUDY    64  64 100 E8        29.75R FOG
$$

IAZ047>049-059>061-072>074-084-021100-
   CENTRAL IOWA

CITY           SKY/WX    TMP DP  RH WIND       PRES   REMARKS
AMES           CLOUDY    62  62 100 CALM      29.78S FOG
ANKENY *       CLOUDY    64  64 100 E3        29.78S
CHARITON *     FOG       63  63 100 SE6       29.78S VSB 0
DES MOINES     CLOUDY    65  63  93 E3        29.77S FOG
GRINNELL*      CLOUDY    64  63  94 E6        29.80S FOG
KNOXVILLE *    FOG       64  63  94 SE7       29.78R VSB 0
MARSHALLTOWN   FOG       63  62  97 SE5       29.78F VSB 1/4
PELLA *        CLOUDY    64  64 100 E5        29.80R FOG
PERRY *        FOG       61  61 100 CALM      29.79R VSB<1/4
$$

IAZ004>006-015-016-023>025-035-036-021100-
   NORTH CENTRAL IOWA

CITY           SKY/WX    TMP DP  RH WIND       PRES   REMARKS
ALGONA *       DRZL/FOG  59  59 100 E5        29.81R VSB 0
CLARION *      CLOUDY    61  61 100 CALM      29.81R
ESTHERVILLE    MOCLDY    56  55  97 N8        29.81R
FORT DODGE *   CLOUDY    59  57  94 E3        29.80S VSB<1/4
MASON CITY     FOG       56  55  97 NW3       29.82S VSB 1/4
FOREST CITY *  FOG       59  59 100 CALM      29.82R VSB 0
IOWA FALLS *   FOG       61  61 100 NE3       29.81S VSB 1/4
$$

IAZ007>011-017>019-026>030-037>042-050>054-066-021100-
   NORTHEAST IOWA

CITY           SKY/WX    TMP DP  RH WIND       PRES   REMARKS
CHARLES CITY * CLOUDY    61  61 100 CALM      29.83R FOG
CLINTON *      CLOUDY    64  61  88 CALM      29.84R
DECORAH *      CLOUDY    61  61 100 CALM      29.81S FOG
MONTICELLO *   CLOUDY    63  63 100 CALM      29.81F
OELWEIN *      FOG       57  57 100 CALM      29.81F VSB 0
WATERLOO       CLOUDY    61  61 100 CALM      29.79S FOG
$$

IAZ064-065-067-068-078-021100-
   EAST CENTRAL IOWA

CITY           SKY/WX    TMP DP  RH WIND       PRES   REMARKS
IOWA CITY      CLOUDY    65  63  93 CALM      29.81F
MT. PLEASANT * CLOUDY    63  63 100 CALM      29.81S FOG
MUSCATINE *    PTCLDY    63  61  94 CALM      29.81R FOG
QUAD CITIES    CLOUDY    62  60  93 E3        29.81S FOG
$$

IAZ062-063-075>077-085>089-095>099-021100-
   SOUTHEAST IOWA

CITY           SKY/WX    TMP DP  RH WIND       PRES   REMARKS
BURLINGTON     CLOUDY    65  64  97 CALM      29.81F FOG
FAIRFIELD *    CLOUDY    63  63 100 SE5       29.81S
FORT MADISON * CLOUDY    66  64  94 CALM      29.82F FOG
KEOKUK *       MOCLDY    64  64 100 CALM      29.81S FOG
OSKALOOSA *    FOG       64  63  94 SE7       29.80S VSB 3/4
CENTERVILLE *  CLOUDY    64  64 100 E6        29.81S FOG
OTTUMWA        FOG       62  62 100 SE6       29.79F VSB 1/4
WASHINGTON *   CLOUDY    63  63 100 CALM      29.81R FOG
$$

ABBREVIATIONS USED IN REMARKS
   TC - TEMPERATURES IN CELSIUS
  WCI - WIND CHILL INDEX
   HX - HEAT INDEX
  VSB - VISIBILITY
$$



USA.gov is the U.S. government's official web portal to all federal, state and local government web resources and services.